This is the latest recevied weather packets stored in our database for station/object CE7LGA-10. If no packets are shown the sender has not sent any weather packets the latest 10 day(s).
| Time | Temp. | Humidity | Pressure | Rain* | Wind** | Luminosity | Snow |
|---|---|---|---|---|---|---|---|
| 1788056603 | 25° C | 48% | 1002.9 hPa | - | - | - | - |
| 1788055703 | 25° C | 49% | 1002.9 hPa | - | - | - | - |
| 1788054803 | 25.56° C | 49% | 1002.7 hPa | - | - | - | - |
| 1788053903 | 25.56° C | 48% | 1002.7 hPa | - | - | - | - |
| 1788053003 | 26.67° C | 47% | 1002.7 hPa | - | - | - | - |
| 1788052103 | 26.67° C | 48% | 1002.4 hPa | - | - | - | - |
| 1788051203 | 26.67° C | 48% | 1002.3 hPa | - | - | - | - |
| 1788050303 | 26.67° C | 50% | 1002.3 hPa | - | - | - | - |
| 1788049402 | 26.11° C | 48% | 1002.1 hPa | - | - | - | - |
| 1788048502 | 26.11° C | 49% | 1002 hPa | - | - | - | - |
| 1788047602 | 26.11° C | 49% | 1002.1 hPa | - | - | - | - |
| 1788046702 | 25.56° C | 51% | 1001.8 hPa | - | - | - | - |
| 1788045802 | 25° C | 52% | 1001.8 hPa | - | - | - | - |
| 1788044902 | 24.44° C | 52% | 1001.7 hPa | - | - | - | - |
| 1788044001 | 24.44° C | 52% | 1001.4 hPa | - | - | - | - |
| 1788043104 | 24.44° C | 52% | 1001.2 hPa | - | - | - | - |
| 1788042204 | 21.11° C | 49% | 1001 hPa | - | - | - | - |
| 1788041304 | 25.56° C | 48% | 1000.8 hPa | - | - | - | - |
| 1788040403 | 24.44° C | 50% | 1000.8 hPa | - | - | - | - |
| 1788039503 | 23.33° C | 50% | 1000.7 hPa | - | - | - | - |
| 1788038603 | 23.33° C | 51% | 1000.5 hPa | - | - | - | - |
| 1788037703 | 23.33° C | 50% | 1000.3 hPa | - | - | - | - |
| 1788036803 | 18.89° C | 54% | 1000.1 hPa | - | - | - | - |
| 1788035903 | 24.44° C | 51% | 999.8 hPa | - | - | - | - |
| 1788035003 | 24.44° C | 51% | 999.7 hPa | - | - | - | - |
* Rain since midnight (hover to see other rain measurements)
** Current wind speed in m/s (hover to see current wind gust speed)